Weather WX

World > North America > United States > New Jersey

Blue Anchor, New Jersey Regional Weather

Lat: 39.63N, Lon: 74.77W
Wx Zone: NJZ022
Warning FLW WEATHER ALERT - (More Info. Click Here) Warning
Feedback

Blue Anchor, NJ Regional Weather

Expires:201906250800;;040471
ASUS41 KOKX 250712
RWROKX

Regional Weather Roundup
National Weather Service New York NY
300 AM EDT TUE JUN 25 2019

Note: "FAIR" indicates few or no clouds below 12,000 feet with no
significant weather and/or obstructions to visibility.


NJZ001-105-106-008-010-013-015-019>022-104-250800-
New Jersey
  
CITY           SKY/WX    TMP DP  RH WIND       PRES   REMARKS
Newark/Liberty CLOUDY    75  67  76 SE5       29.81F                  
Teterboro      FAIR      75  65  70 CALM      29.81S                  
Caldwell       MOCLDY    74  67  78 CALM      29.82S                  
Somerville     MOCLDY    70  66  87 CALM      29.80R                  
Linden         FAIR      74  66  76 CALM      29.82S                  
Perth Amboy      N/A     72 N/A N/A E2          N/A                   
Sussex         MOCLDY    68  66  93 CALM      29.83S                  
Andover          N/A     70  66  87 CALM      29.82S                  
Trenton        MOCLDY    72  68  87 S7        29.81R                  
Millville      FAIR      73  72  96 VRB3      29.81S                  
Atlantic City  NOT AVBL                                               
Wrightstown    FAIR      71  69  92 SW3       29.80R                  
Toms River     FAIR      72  32  23 S6        29.83S                  
Belmar         FAIR      72  69  90 SE5       29.84S                  
$$
 

SKY/WX - Weather  TMP - Temperature  DP - Dew Point  RH - Relative Humidity
WIND - Wind Direction/Speed PRES - Barometric Pressure VSB - Visibility
WCI - Wind Chill Index E13G22 Wind - East Wind 13 mph/Gusts of 22 mph